F8KGK-5 Weather Reports


time (UTC)temp
C
wind
direction
speed
KPH
gust
KPH
rain 1hr
cm
rain 24hr
cm
rain mn
cm
humidity
%
barometer
mb
20260902231701 17 249 0.0 1.6 0.00 0.00 0.00 69 1014.9
20260902224701 18 248 0.0 0.0 0.00 0.00 0.00 67 1014.9
20260902221701 19 230 3.2 3.2 0.00 0.00 0.00 63 1014.7
20260902214702 20 220 1.6 4.8 0.00 0.00 0.00 60 1014.7
20260902211702 20 218 3.2 4.8 0.00 0.00 0.00 59 1014.6
20260902204701 20 284 1.6 3.2 0.00 0.00 0.00 59 1014.8
20260902201700 20 255 1.6 3.2 0.00 0.00 0.00 58 1015.0
20260902201634 20 255 1.6 3.2 0.00 0.00 0.00 58 1015.0
20260902191259 21 271 1.6 6.4 0.00 0.00 0.00 54 1014.4
20260902184258 22 271 0.0 3.2 0.00 0.00 0.00 52 1014.0
20260902181259 23 262 1.6 3.2 0.00 0.00 0.00 49 1014.0
20260902174259 23 263 6.4 9.7 0.00 0.00 0.00 47 1014.1
20260902171300 24 227 9.7 16.1 0.00 0.00 0.00 46 1014.1
20260902164259 25 277 8.0 9.7 0.00 0.00 0.00 44 1014.2
20260902161259 25 238 11.3 12.9 0.00 0.00 0.00 44 1014.2
20260902154300 25 265 3.2 8.0 0.00 0.00 0.00 43 1014.5
20260902151259 26 273 9.7 20.9 0.00 0.00 0.00 42 1014.7
20260902144259 31 275 9.7 8.0 0.00 0.00 0.00 35 1014.7
20260902141301 26 258 4.8 6.4 0.00 0.00 0.00 42 1015.1
20260902134259 26 264 4.8 9.7 0.00 0.00 0.00 42 1015.4
20260902131259 26 209 11.3 12.9 0.00 0.00 0.00 41 1015.2
20260902124259 26 270 4.8 6.4 0.00 0.00 0.00 41 1015.4
20260902121259 25 319 0.0 1.6 0.00 0.00 0.00 42 1015.6
20260902114258 27 264 8.0 11.3 0.00 0.00 0.00 42 1015.8
20260902111259 25 207 8.0 8.0 0.00 0.00 0.00 44 1016.0
20260902104300 25 275 4.8 9.7 0.00 0.00 0.00 48 1016.3
20260902101300 23 274 6.4 11.3 0.00 0.00 0.00 50 1016.2
20260902094300 23 182 4.8 12.9 0.00 0.00 0.00 54 1016.2
20260902091259 22 227 4.8 6.4 0.00 0.00 0.00 56 1016.1
20260902084300 23 278 0.0 3.2 0.00 0.00 0.00 55 1016.3
20260902081259 25 270 0.0 3.2 0.00 0.00 0.00 58 1015.7
20260902074259 20 270 0.0 0.0 0.00 0.00 0.00 73 1015.6
20260902071258 18 270 0.0 0.0 0.00 0.00 0.00 78 1015.5
20260902064257 16 227 0.0 1.6 0.00 0.00 0.00 88 1015.4
20260902061259 13 225 0.0 0.0 0.00 0.00 0.00 90 1015.3
20260902060021 12 225 0.0 1.6 0.00 0.00 0.00 90 1015.1
20260902053020 11 270 0.0 0.0 0.00 0.00 0.00 89 1015.2
20260902050022 12 225 0.0 0.0 0.00 0.00 0.00 89 1014.9
20260902043022 12 270 0.0 1.6 0.00 0.00 0.00 88 1015.2
20260902040022 12 270 0.0 1.6 0.00 0.00 0.00 88 1015.3
20260902033020 12 270 0.0 0.0 0.00 0.00 0.00 88 1015.1
20260902030025 12 270 0.0 0.0 0.00 0.00 0.00 87 1015.2
20260902023022 12 270 0.0 0.0 0.00 0.00 0.00 86 1015.4
20260902020021 13 225 0.0 0.0 0.00 0.00 0.00 85 1015.2
20260902013022 12 225 0.0 3.2 0.00 0.00 0.00 84 1015.3
20260902010021 13 225 0.0 0.0 0.00 0.00 0.00 83 1015.4
20260902003020 13 225 0.0 0.0 0.00 0.00 0.00 82 1015.4
20260902000020 14 202 0.0 0.0 0.00 0.00 0.00 81 1015.3